Vance Air Force Base Enid US
ICAO: KEND
IATA: END
Category: Large
Scheduled Services: No

Elevation: 1307 ft
TransAlt. 18000 ft.

Airport Communications:
APP:118.075
ATIS:115.4
CLNC DEL:22.54
DEP:120.525
GND:121.8
PMSV METRO:34.255
PTD:37.22
TWR:124.05

KEND Zoom In..

If you have problems with the map follow the link
https://www.worldairports.se/pages/airport.php?
ICAO=KEND

Runways:

(A) RW 13 length 4971 ft width 150 ft
---- / hdg 130

(B) RW 17C length 9217 ft width 150 ft
ILS 108.90 / hdg 175

(C) RW 17L length 5024 ft width 150 ft
---- / hdg 175

(D) RW 17R length 9217 ft width 150 ft
---- / hdg 175

(E) RW 31 length 4971 ft width 150 ft
---- / hdg 310

(F) RW 35C length 9217 ft width 150 ft
ILS 110.10 / hdg 355

(G) RW 35L length 9217 ft width 150 ft
---- / hdg 355

(H) RW 35R length 5024 ft width 150 ft
---- / hdg 355

Location; KEND
Day. 08 / Time. 11.56 Zulu
* Altimeter: 29.84
* Temperature: 06° c. 42.8°f.
* Wind from: 180° Speed 08 kn.
Dewpoint: 06° c.
Visibility: 10 Statute Miles.
Clouds: Clear (automated report).

KEND 081156Z AUTO 18008KT 10SM CLR 06/06 A2984 RMK AO2 SLPNO T00580058 10078 20058 55010 $


Wind From 180°
Speed 08 kn.

 
 
jpsmedia worldairports.se 2019   terms of use